Regional Weather Roundup
Issued by NWS

Home | Current Version | Previous Version | Text Only | Print | Product List | Glossary On
Versions: 1 2 3 4 5 6 7 8 9 10 11 12 13 14 15 16 17 18 19 20 21 22 23 24 25 26 27 28 29 30 31 32 33 34 35 36 37 38 39 40 41 42 43 44 45 46 47 48 49 50
000
ASUS45 KTFX 301619
RWRMT
MONTANA HOURLY WEATHER ROUNDUP
NATIONAL WEATHER SERVICE GREAT FALLS MT
1019 AM MDT SAT AUG 30 2014

NOTE: "FAIR" INDICATES FEW OR NO CLOUDS BELOW 12000 FEET WITH NO
SIGNIFICANT WEATHER AND/OR OBSTRUCTIONS TO VISIBILITY.

* THESE STATIONS ARE NOT UNDER NWS QUALITY CONTROL. THEY DO NOT
   REPORT WEATHER SUCH AS PRECIPITATION OR FOG.

MTZ001>007-043-301700-
WEST OF THE DIVIDE
CITY           SKY/WX    TMP DP  RH WIND       PRES   REMARKS
KALISPELL      PTSUNNY   66  41  40 SW10      29.82S
MISSOULA       CLOUDY    64  46  52 CALM      29.89S
BUTTE          PTSUNNY   55  46  72 N6        29.94F
MULLAN PASS    PTSUNNY   48  39  71 CALM      29.97S
* LINCOLN      N/A       53  49  86 E2         N/A
* LOOKOUT PASS N/A       57  41  55 SE7G13     N/A
* POLSON       N/A       63  45  52 SW2G7      N/A
* RONAN APT    CLOUDY    64  43  47 SW8        N/A
* SEELEY LAKE  N/A       53  49  86 SE2        N/A
* THOMP F APT  PTCLDY    58  45  62 NW7G13     N/A
$$

MTZ008-052>055-301700-
SOUTHWEST MONTANA
CITY           SKY/WX    TMP DP  RH WIND       PRES   REMARKS
BOZEMAN        CLOUDY    61  52  72 CALM      29.89F
DILLON         CLOUDY    55  52  90 SW6       29.92F
W YELLOWSTONE  CLOUDY    55  45  69 NE3       30.02S
* THREE FORKS  PTSUNNY   61  43  52 N/A        N/A
* BOULDER HILL N/A       57  39  51 SW10       N/A
* MONIDA PASS  N/A       49  49 100 NW10G16    N/A
* RAYNOLDS PAS N/A       51   9  18 NE8        N/A
* WHITEHALL    N/A       60  53  78 NE3        N/A
* WISE RIVER   N/A       52  48  86 W4         N/A
$$

MTZ009>010-012-014-046-048-049-054-301700-
EAST SLOPES AND CENTRAL MONTANA
CITY           SKY/WX    TMP DP  RH WIND       PRES   REMARKS
CUT BANK       PTSUNNY   64  43  47 W23G29    29.80S
GREAT FALLS    CLOUDY    66  43  43 SW16G22   29.81S
HELENA         PTSUNNY   68  43  40 CALM      29.86F
MALMSTROM AFB  PTSUNNY   66  45  47 W14G24    29.83S
* CONRAD       CLOUDY    70  45  41 SW16G28    N/A
* EAST GLACIER N/A       58  43  58 W14        N/A
* MONARCH      N/A       57  38  49 S6G12      N/A
* PENDROY      N/A       64  42  45 W12        N/A
* ROGERS PASS  N/A       53  43  69 SE6G13     N/A
* SAINT MARY   N/A       60  42  52 S5G15      N/A
* SWEET GRASS  N/A       61  42  50 NW9        N/A
* WHITE SULPH  N/A       59  51  75 S6         N/A
$$

MTZ011-013-016-021-035-040-045-047-050-051-301700-
NORTH CENTRAL MONTANA
CITY           SKY/WX    TMP DP  RH WIND       PRES   REMARKS
HAVRE          CLOUDY    66  50  56 W9        29.75R
LEWISTOWN      CLOUDY    59  54  84 SW5       29.87F
* CHINOOK      CLOUDY    66  52  61 W7        29.73R
* FORT BENTON  CLOUDY    66  52  61 S3        29.78F
* CHESTER      N/A       64  50  61 N/A        N/A
* DENTON       N/A       58  54  87 SE7        N/A
* GEYSER       N/A       57  47  69 SE13       N/A
* JUDITH GAP   N/A       56  52  87 VRB5       N/A
* LOMA         N/A       64  50  61 S6         N/A
$$

MTZ017>020-022>027-061-062-301700-
NORTHEAST MONTANA
CITY           SKY/WX    TMP DP  RH WIND       PRES   REMARKS
GLASGOW        LGT RAIN  59  55  87 SE7       29.77R
GLENDIVE       PTCLDY    70  55  59 CALM      29.80S
JORDAN         CLOUDY    61  55  81 CALM      29.79R
SIDNEY         SUNNY     66  57  73 S15       29.82R
WOLF POINT     CLOUDY    61  55  81 E9        29.76F
* BEAVER HILL  N/A       65  56  73 SE28       N/A
* CIRCLE       N/A       62  57  84 SE8        N/A
* LINDSAY DVD  N/A       60  55  84 E2         N/A
* NAVAJO       N/A       58  53  84 S19G24     N/A
* SACO         N/A       60  56  87 S5         N/A
$$

MTZ028>042-056>058-301700-
SOUTHCENTRAL AND SOUTHEAST MONTANA
CITY           SKY/WX    TMP DP  RH WIND       PRES   REMARKS
BAKER          SUNNY     66  55  68 SE26G33   29.81F
BILLINGS       LGT RAIN  64  52  65 NW17      29.86R
LIVINGSTON     CLOUDY    63  52  68 NW13      29.88F
MILES CITY     PTSUNNY   72  54  53 N/A       29.76R
* LAUREL APT   CLOUDY    63  50  63 NW8        N/A
* ROUNDUP APT  CLOUDY    63  48  58 N/A        N/A
* ALZADA       N/A       61  56  84 SE6        N/A
* HYSHAM       N/A       59  52  78 W6G14      N/A
* LAME DEER    N/A       66  50  56 W11        N/A
* REED POINT   N/A       61  50  67 W4         N/A
* ROSCOE HILL  N/A       63  40  43 S12G20     N/A
$$

REGIONAL REPORTS...DAKOTAS
CITY           SKY/WX    TMP DP  RH WIND       PRES   REMARKS
WILLISTON      SUNNY     68  55  63 S14       29.82F
DICKINSON      SUNNY     63  54  73 SE21      29.85F
BEACH          N/A       63  59  87 SE21G28   29.83S
CROSBY         SUNNY     66  55  68 S20G26    29.80F
TIOGA          SUNNY     66  57  73 SE21G29   29.87F
WATFORD CITY   SUNNY     66  54  65 S16G24    29.81F
BISMARCK       SUNNY     61  55  81 SE9       29.93F
GRAND FORKS    SUNNY     63  55  75 NE3       29.92F
FARGO          CLOUDY    59  55  87 N8        29.92S
BUFFALO SD     SUNNY     61  55  81 SE17      29.80F
RAPID CITY     SUNNY     68  57  68 SE15      29.88F
$$

REGIONAL REPORTS...WYOMING/IDAHO/WASHINGTON
CITY           SKY/WX    TMP DP  RH WIND       PRES   REMARKS
GILLETTE       PTCLDY    72  54  53 S14       29.85F
SHERIDAN       CLOUDY    66  52  61 N6        29.82R
CODY           CLOUDY    66  46  49 E10       29.89S
YELLOWSTONE LA PTCLDY    55  46  72 CALM      30.10F
SALMON         CLOUDY    61  52  72 NW3       29.91S
MULLAN PASS    PTSUNNY   48  39  71 CALM      29.97S
SAND POINT     PTCLDY    61  45  56 SW6       29.87R
SPOKANE        PTCLDY    61  45  56 SW9       29.88S
$$

REGIONAL REPORTS...ALBERTA
CITY           SKY/WX    TMP DP  RH WIND       PRES   REMARKS
CALGARY        PTSUNNY   55  43  64 CALM      29.79S
LETHBRIDGE     PTSUNNY   61  50  67 E6        29.78S
MEDICINE HAT   PTCLDY    64  54  70 NW6       29.73S
EDMONTON       PTSUNNY   57  48  72 W10       29.71F
WATERTON GATE  N/A       61  41  48 SW8        N/A
CARDSTON       N/A       59  46  62 CALM       N/A
MILK RIVER     N/A       63  45  52 N7         N/A
$$

REGIONAL REPORTS...SASKATCHEWAN
CITY           SKY/WX    TMP DP  RH WIND       PRES   REMARKS
SWIFT CURRENT  PTSUNNY   64  52  65 W16G22    29.67R
REGINA         N/A       61  57  87 SE13      29.72S
VAL MARIE      N/A       63  54  73 S9         N/A
ASSINIBOIA     N/A       64  52  65 S12G17     N/A
CORONACH       N/A       61  54  78 S8         N/A

$$



USA.gov is the U.S. government's official web portal to all federal, state and local government web resources and services.